Location: Boussac
(44.2782°N, 2.3665°E)
Time: 15:22:48
(UTC+00:00)

Meteor 1-27 Rocket - Pass Details

Date: 15 May 2026
Orbit: 830 x 907 km, 81.3° (Epoch: 10 June)

Event Time Altitude Azimuth Distance (km) Brightness Sun altitude
Exits shadow 23:25:46 61° 115° (ESE) 1,001 3.8 -26.5°
Maximum altitude 23:26:07 62° 96° (E) 989 3.9 -26.5°
Drops below altitude 10° 23:31:47 10° 17° (NNE) 2,529 7.0 -26.6°
Sets 23:34:14 0° 14° (NNE) 3,459 8.0 -26.6°
